Change the Weather History Date:

Tuesday, February 25, 2014

  Actual Average Record
Temperature  
Mean Temperature 20 °F -  
Max Temperature 26 °F 38 °F 48 °F (2002)
Min Temperature 15 °F 23 °F 8 °F (2015)
Degree Days  
Heating Degree Days 44    
Moisture  
Dew Point 3 °F    
Average Humidity 47    
Maximum Humidity 53    
Minimum Humidity 42    
Precipitation  
Precipitation 0.00 in - - ()
Sea Level Pressure  
Sea Level Pressure 29.97 in    
Wind  
Wind Speed 7 mph (WNW)    
Max Wind Speed 39 mph    
Max Gust Speed 24 mph    
Visibility 10 miles    
Events      
Averages and records for this station are not official NWS values.
T = Trace of Precipitation, MM = Missing Value Source: NWS Daily Summary

Daily Weather History Graph

Daily Weather History Graph

Search for Another Location

Airport or City:

Trip Planner

Search our weather history database for the weather conditions in past years. The results will help you decide how hot, cold, wet, or windy it might be!

Date:

Astronomy

Feb. 25, 2014 Rise Set
Actual Time 6:33 AM EST 5:38 PM EST
Civil Twilight 6:05 AM EST 6:06 PM EST
Nautical Twilight 5:33 AM EST 6:38 PM EST
Astronomical Twilight 5:01 AM EST 7:10 PM EST
Moon 3:27 AM EST (2/25) 1:39 PM EST (2/25)
Length of Visible Light 12h 00m
Length of Day
11h 05m
Waning Crescent, 18% of the Moon is Illuminated
Feb 25
Waning Crescent
Mar 1
New
Mar 8
First Quarter
Mar 16
Full
Mar 23
Last Quarter

Hourly Weather History & Observations

Time (EST) Temp. Windchill Dew Point Humidity Pressure Visibility Wind Dir Wind Speed Gust Speed Precip Events Conditions
12:15 AM 21.2 °F 13.6 °F 1.4 °F 42% 30.00 in 10.0 mi WNW 5.8 mph - N/A   Clear
12:35 AM 21.2 °F 11.7 °F 1.4 °F 42% 30.00 in 10.0 mi West 8.1 mph - N/A   Clear
12:55 AM 19.4 °F 12.8 °F 1.4 °F 46% 30.01 in 10.0 mi West 4.6 mph - N/A   Clear
1:15 AM 19.4 °F 7.9 °F 1.4 °F 46% 30.00 in 10.0 mi WNW 10.4 mph 17.3 mph N/A   Clear
1:35 AM 19.4 °F 8.6 °F 1.4 °F 46% 30.00 in 10.0 mi West 9.2 mph 16.1 mph N/A   Clear
1:55 AM 19.4 °F 9.5 °F 1.4 °F 46% 29.99 in 10.0 mi WNW 8.1 mph 16.1 mph N/A   Clear
2:15 AM 19.4 °F 11.5 °F 1.4 °F 46% 29.99 in 10.0 mi West 5.8 mph - N/A   Clear
2:35 AM 19.4 °F 7.9 °F 1.4 °F 46% 29.99 in 10.0 mi West 10.4 mph - N/A   Clear
2:55 AM 19.4 °F 9.5 °F 1.4 °F 46% 29.98 in 10.0 mi West 8.1 mph - N/A   Clear
3:15 AM 19.4 °F 9.5 °F 1.4 °F 46% 29.98 in 10.0 mi West 8.1 mph 16.1 mph N/A   Clear
3:35 AM 17.6 °F 6.4 °F 1.4 °F 49% 29.99 in 10.0 mi West 9.2 mph - N/A   Clear
3:55 AM 17.6 °F 9.3 °F 1.4 °F 49% 29.98 in 10.0 mi West 5.8 mph - N/A   Clear
4:15 AM 17.6 °F 9.3 °F 1.4 °F 49% 29.98 in 10.0 mi West 5.8 mph - N/A   Clear
4:35 AM 17.6 °F 8.2 °F 1.4 °F 49% 29.99 in 10.0 mi West 6.9 mph - N/A   Clear
4:55 AM 17.6 °F 8.2 °F 1.4 °F 49% 29.99 in 10.0 mi West 6.9 mph - N/A   Clear
5:15 AM 17.6 °F 8.2 °F 1.4 °F 49% 29.99 in 10.0 mi West 6.9 mph - N/A   Clear
5:35 AM 17.6 °F 8.2 °F 1.4 °F 49% 29.99 in 10.0 mi West 6.9 mph - N/A   Clear
5:45 AM 17.6 °F 9.3 °F 1.4 °F 49% 29.99 in 10.0 mi West 5.8 mph - N/A   Scattered Clouds
6:45 AM 15.8 °F 7.2 °F 1.4 °F 53% 29.99 in 10.0 mi West 5.8 mph - N/A   Partly Cloudy
7:45 AM 17.6 °F 9.3 °F 3.2 °F 53% 30.00 in 10.0 mi West 5.8 mph - N/A   Scattered Clouds
8:45 AM 19.4 °F 8.6 °F 3.2 °F 49% 30.01 in 10.0 mi WNW 9.2 mph - N/A   Overcast
9:45 AM 23.0 °F 13.1 °F 5.0 °F 46% 30.00 in 10.0 mi West 9.2 mph - N/A   Mostly Cloudy
10:45 AM 24.8 °F 16.9 °F 6.8 °F 46% 29.99 in 10.0 mi West 6.9 mph - N/A   Scattered Clouds
11:45 AM 24.8 °F 16.9 °F 6.8 °F 46% 29.96 in 10.0 mi West 6.9 mph 18.4 mph N/A   Mostly Cloudy
12:45 PM 26.6 °F 15.7 °F 8.6 °F 47% 29.93 in 10.0 mi West 12.7 mph 24.2 mph N/A   Overcast
1:45 PM 26.6 °F 15.7 °F 8.6 °F 47% 29.93 in 10.0 mi West 12.7 mph 24.2 mph N/A   Overcast
2:45 PM 26.6 °F 16.2 °F 8.6 °F 47% 29.89 in 10.0 mi WNW 11.5 mph 19.6 mph N/A   Mostly Cloudy
3:45 PM 24.8 °F 14.0 °F 8.6 °F 50% 29.88 in 10.0 mi WNW 11.5 mph 17.3 mph N/A   Mostly Cloudy
4:45 PM 26.6 °F 16.2 °F 6.8 °F 43% 29.88 in 10.0 mi WNW 11.5 mph 24.2 mph N/A   Scattered Clouds
5:45 PM 24.8 °F 14.0 °F 6.8 °F 46% 29.90 in 10.0 mi NW 11.5 mph - N/A   Scattered Clouds
6:45 PM 24.8 °F 19.1 °F 5.0 °F 43% 29.92 in 10.0 mi NW 4.6 mph - N/A   Partly Cloudy
7:45 PM 23.0 °F 3.4 °F 3.2 °F 43% 29.93 in 10.0 mi NW 39.1 mph - N/A   Clear
9:15 PM 21.2 °F 16.4 °F 3.2 °F 46% 29.96 in 10.0 mi WNW 3.5 mph - N/A   Clear
9:35 PM 21.2 °F 16.4 °F 1.4 °F 42% 29.96 in 10.0 mi WNW 3.5 mph - N/A   Clear
9:55 PM 19.4 °F 14.3 °F 1.4 °F 46% 29.97 in 10.0 mi NW 3.5 mph - N/A   Clear
10:15 PM 19.4 °F 14.3 °F 1.4 °F 46% 29.96 in 10.0 mi NNW 3.5 mph - N/A   Clear
10:35 PM 17.6 °F - 1.4 °F 49% 29.96 in 10.0 mi Calm Calm - N/A   Clear
10:55 PM 17.6 °F - 1.4 °F 49% 29.95 in 10.0 mi Calm Calm - N/A   Clear
11:15 PM 15.8 °F - 1.4 °F 53% 29.95 in 10.0 mi Calm Calm - N/A   Clear
11:35 PM 15.8 °F - 1.4 °F 53% 29.95 in 10.0 mi Calm Calm - N/A   Clear
11:55 PM 15.8 °F 10.2 °F 1.4 °F 53% 29.93 in 10.0 mi NNW 3.5 mph - N/A   Clear